BGTL

Thule Air Base Airport

Thule, Greenland
Issued Wind Visibility Temperature Dew Point Humidity Barometer
Sep-25
06:58 UTC
120°
8 KTS
10,000+ meters -8° C
18° F
-12° C
10° F
73% 29.3" Hg
990.8 hPa
VFR
Sep-25
05:58 UTC
110°
9 KTS
10,000+ meters -6° C
21° F
-12° C
10° F
63% 29.3" Hg
990.8 hPa
VFR
Sep-25
04:58 UTC
040°
10 KTS
10,000+ meters -2° C
28° F
-11° C
12° F
51% 29.29" Hg
990.4 hPa
VFR
Sep-25
03:58 UTC
090°
8 KTS
10,000+ meters -7° C
19° F
-12° C
10° F
68% 29.3" Hg
990.9 hPa
VFR
Sep-25
02:58 UTC
100°
4 KTS
10,000+ meters -8° C
18° F
-12° C
10° F
73% 29.31" Hg
991.2 hPa
VFR
Sep-25
01:58 UTC
100°
6 KTS
10,000+ meters -7° C
19° F
-11° C
12° F
73% 29.33" Hg
991.9 hPa
VFR
Sep-25
00:58 UTC
080°
8 KTS
10,000+ meters -8° C
18° F
-11° C
12° F
79% 29.36" Hg
992.9 hPa
VFR
Sep-24
23:58 UTC
110°
7 KTS
10,000+ meters -8° C
18° F
-11° C
12° F
79% 29.39" Hg
994 hPa
VFR
Sep-24
22:58 UTC
090°
7 KTS
10,000+ meters -7° C
19° F
-10° C
14° F
79% 29.43" Hg
995.3 hPa
VFR
Sep-24
21:58 UTC
120°
5 KTS
10,000+ meters -6° C
21° F
-10° C
14° F
74% 29.47" Hg
996.7 hPa
VFR
Sep-24
20:58 UTC
10,000+ meters -4° C
25° F
-9° C
16° F
69% 29.5" Hg
997.6 hPa
VFR
Sep-24
19:58 UTC
10,000+ meters -3° C
27° F
-8° C
18° F
69% 29.54" Hg
999 hPa
VFR
Sep-24
18:58 UTC
10,000+ meters -1° C
30° F
-9° C
16° F
55% 29.57" Hg
1000 hPa
VFR
Sep-24
17:58 UTC
10,000+ meters -2° C
28° F
-10° C
14° F
55% 29.6" Hg
1001 hPa
VFR
Sep-24
16:58 UTC
10,000+ meters -2° C
28° F
-11° C
12° F
51% 29.62" Hg
1001.7 hPa
VFR
Sep-24
15:58 UTC
10,000+ meters -3° C
27° F
-9° C
16° F
64% 29.65" Hg
1004 hPa
VFR
Sep-24
14:58 UTC
110°
3 KTS
10,000+ meters -3° C
27° F
-8° C
18° F
69% 29.68" Hg
1005 hPa
VFR
Sep-24
13:58 UTC
100°
3 KTS
10,000+ meters -4° C
25° F
-8° C
18° F
74% 29.7" Hg
1006 hPa
VFR
Sep-24
12:58 UTC
10,000+ meters -5° C
23° F
-8° C
18° F
80% 29.72" Hg
1006 hPa
VFR
Sep-24
11:58 UTC
10,000+ meters -6° C
21° F
-10° C
14° F
74% 29.74" Hg
1007 hPa
VFR
Sep-24
10:58 UTC
110°
5 KTS
10,000+ meters -7° C
19° F
-10° C
14° F
79% 29.74" Hg
1005.8 hPa
VFR
Sep-24
08:58 UTC
120°
8 KTS
10,000+ meters -8° C
18° F
-11° C
12° F
79% 29.74" Hg
1005.8 hPa
VFR